IU1DOF-3 Weather Reports


Display with metric or nautical units.
time (UTC)temp
F
wind
direction
speed
MPH
gust
MPH
rain 1hr
in
rain 24hr
in
rain mn
in
humidity
%
barometer
mb
20260831003441 60 292 0.0 0.0 0.00 0.00 0.00 93 1015.7
20260831002419 61 295 0.0 0.0 0.00 0.00 0.00 94 1016.0
20260831001355 60 293 0.0 0.0 0.00 0.00 0.00 95 1015.9
20260831000341 60 308 0.0 0.0 0.00 0.00 0.00 96 1015.8
20260830235322 60 279 1.0 1.0 0.00 0.00 0.00 95 1015.9
20260830234259 61 293 1.0 1.0 0.00 0.00 0.00 94 1016.1
20260830233240 61 292 0.0 0.0 0.00 0.00 0.00 95 1016.0
20260830232227 61 294 0.0 0.0 0.00 0.00 0.00 95 1016.0
20260830231202 61 293 1.0 1.0 0.00 0.00 0.00 94 1016.1
20260830230154 61 293 0.0 1.0 0.00 0.00 0.00 94 1015.9
20260830225141 62 293 0.0 0.0 0.00 0.00 0.00 92 1016.0
20260830224122 62 295 2.0 2.0 0.00 0.00 0.00 93 1016.0
20260830223058 62 293 0.0 1.0 0.00 0.00 0.00 92 1016.2
20260830222040 62 294 0.0 0.0 0.00 0.00 0.00 93 1016.2
20260830221026 62 295 1.0 1.0 0.00 0.00 0.00 92 1015.9
20260830220002 63 293 2.0 2.0 0.00 0.00 0.00 91 1016.1
20260830214938 63 293 2.0 2.0 0.00 0.00 0.00 91 1016.0
20260830213914 62 294 0.0 0.0 0.00 0.00 0.00 92 1016.0
20260830212851 62 293 0.0 0.0 0.00 0.00 0.00 92 1016.0
20260830211841 63 293 1.0 2.0 0.00 0.00 0.00 90 1015.9
20260830210819 63 293 1.0 2.0 0.00 0.00 0.00 91 1015.8
20260830205754 63 294 1.0 2.0 0.00 0.00 0.00 91 1015.8
20260830204740 63 295 0.0 0.0 0.00 0.00 0.00 90 1015.8
20260830203722 64 291 1.0 2.0 0.00 0.00 0.00 89 1015.6
20260830202658 64 296 0.0 0.0 0.00 0.00 0.00 90 1015.7
20260830201641 64 293 1.0 2.0 0.00 0.00 0.00 89 1015.8
20260830200626 64 294 2.0 2.0 0.00 0.00 0.00 88 1015.8
20260830195602 65 293 1.0 2.0 0.00 0.00 0.00 88 1015.6
20260830194538 65 294 2.0 2.0 0.00 0.00 0.00 88 1015.5
20260830193514 65 295 0.0 0.0 0.00 0.00 0.00 87 1015.4
20260830192451 65 296 1.0 2.0 0.00 0.00 0.00 88 1015.5
20260830191440 66 293 1.0 1.0 0.00 0.00 0.00 88 1015.1
20260830190419 66 294 1.0 1.0 0.00 0.00 0.00 87 1015.3
20260830185354 66 291 2.0 2.0 0.00 0.00 0.00 86 1015.3
20260830184341 67 295 2.0 2.0 0.00 0.00 0.00 86 1014.8
20260830183322 67 295 2.0 2.0 0.00 0.00 0.00 86 1015.0
20260830182259 67 293 2.0 2.0 0.00 0.00 0.00 87 1014.8
20260830181240 68 294 2.0 3.0 0.00 0.00 0.00 86 1014.5
20260830180226 68 296 2.0 3.0 0.00 0.00 0.00 86 1014.4
20260830175202 68 293 1.0 2.0 0.00 0.00 0.00 86 1014.5
20260830174138 69 296 3.0 3.0 0.00 0.00 0.00 85 1014.1
20260830173116 69 297 3.0 3.0 0.00 0.00 0.00 84 1014.2
20260830172050 70 295 3.0 3.0 0.00 0.00 0.00 84 1014.2
20260830171040 71 297 2.0 3.0 0.00 0.00 0.00 83 1014.3
20260830170022 72 296 2.0 3.0 0.00 0.00 0.00 82 1013.8
20260830165011 73 297 2.0 2.0 0.00 0.00 0.00 80 1014.2
20260830164002 73 304 2.0 3.0 0.00 0.00 0.00 80 1013.9
20260830162954 75 297 2.0 3.0 0.00 0.00 0.00 76 1014.1
20260830161947 75 311 2.0 2.0 0.00 0.00 0.00 72 1013.8
20260830160938 78 300 0.0 1.0 0.00 0.00 0.00 67 1014.0
20260830155931 79 294 2.0 2.0 0.00 0.00 0.00 69 1014.0
20260830154923 79 261 0.0 0.0 0.00 0.00 0.00 66 1013.9
20260830153915 79 257 0.0 1.0 0.00 0.00 0.00 63 1013.8
20260830152906 79 212 1.0 1.0 0.00 0.00 0.00 63 1014.1
20260830151859 80 313 0.0 1.0 0.00 0.00 0.00 62 1013.9
20260830150841 81 273 1.0 2.0 0.00 0.00 0.00 63 1013.9
20260830145827 79 249 4.0 5.0 0.00 0.00 0.00 61 1014.0
20260830144819 81 280 0.0 0.0 0.00 0.00 0.00 61 1014.2
20260830143756 81 138 3.0 4.0 0.00 0.00 0.00 61 1013.9
20260830142741 80 267 1.0 2.0 0.00 0.00 0.00 64 1014.0
20260830141723 80 293 1.0 3.0 0.00 0.00 0.00 61 1014.3
20260830140715 81 253 2.0 3.0 0.00 0.00 0.00 61 1013.9
20260830135707 80 275 1.0 3.0 0.00 0.00 0.00 62 1014.0
20260830135655 80 300 0.0 2.0 0.00 0.00 0.00 63 1014.2
20260830134523 80 278 1.0 2.0 0.00 0.00 0.00 62 1014.2
20260830133515 80 161 1.0 3.0 0.00 0.00 0.00 63 1014.4
20260830132506 80 277 2.0 4.0 0.00 0.00 0.00 62 1014.4
20260830131459 80 274 0.0 2.0 0.00 0.00 0.00 60 1014.5
20260830130441 80 266 1.0 1.0 0.00 0.00 0.00 63 1014.6
20260830125427 80 260 1.0 2.0 0.00 0.00 0.00 62 1014.7
20260830124419 79 282 2.0 3.0 0.00 0.00 0.00 59 1014.8
20260830123410 80 279 0.0 2.0 0.00 0.00 0.00 61 1014.7
20260830122348 80 248 1.0 2.0 0.00 0.00 0.00 61 1015.0
20260830121339 80 266 0.0 1.0 0.00 0.00 0.00 61 1014.9
20260830120331 80 262 1.0 2.0 0.00 0.00 0.00 61 1014.9
20260830115307 79 268 0.0 2.0 0.00 0.00 0.00 61 1015.0
20260830114259 79 235 2.0 4.0 0.00 0.00 0.00 62 1014.9
20260830113250 79 255 3.0 4.0 0.00 0.00 0.00 61 1015.1
20260830112241 79 272 2.0 3.0 0.00 0.00 0.00 62 1015.0
20260830111220 78 265 1.0 2.0 0.00 0.00 0.00 64 1015.0
20260830110156 78 239 2.0 4.0 0.00 0.00 0.00 62 1015.2
20260830105140 78 264 0.0 1.0 0.00 0.00 0.00 66 1015.3
20260830104123 79 272 2.0 4.0 0.00 0.00 0.00 60 1015.2
20260830103059 79 268 2.0 4.0 0.00 0.00 0.00 64 1015.4
20260830102050 77 268 0.0 0.0 0.00 0.00 0.00 64 1015.3
20260830101040 76 265 1.0 2.0 0.00 0.00 0.00 63 1015.5
20260830100020 76 263 2.0 3.0 0.00 0.00 0.00 60 1015.6
20260830094955 76 262 4.0 5.0 0.00 0.00 0.00 58 1015.6
20260830093941 77 265 0.0 1.0 0.00 0.00 0.00 63 1015.7
20260830092923 77 266 0.0 0.0 0.00 0.00 0.00 61 1015.8
20260830091900 76 265 0.0 1.0 0.00 0.00 0.00 60 1016.0
20260830090840 74 265 0.0 1.0 0.00 0.00 0.00 62 1015.9
20260830085827 75 262 1.0 2.0 0.00 0.00 0.00 58 1015.9
20260830084804 72 264 0.0 0.0 0.00 0.00 0.00 64 1016.0
20260830083739 71 264 1.0 1.0 0.00 0.00 0.00 64 1016.1
20260830082715 71 263 0.0 1.0 0.00 0.00 0.00 67 1016.1
20260830081651 72 264 0.0 0.0 0.00 0.00 0.00 65 1016.0
20260830080640 70 264 0.0 0.0 0.00 0.00 0.00 68 1016.2
20260830075619 70 264 0.0 0.0 0.00 0.00 0.00 66 1016.1
20260830074556 68 264 0.0 0.0 0.00 0.00 0.00 69 1016.0
20260830073540 68 256 0.0 0.0 0.00 0.00 0.00 68 1016.0
20260830072523 71 264 0.0 0.0 0.00 0.00 0.00 62 1016.0
20260830071459 67 263 0.0 0.0 0.00 0.00 0.00 68 1016.2
20260830070440 67 263 0.0 0.0 0.00 0.00 0.00 67 1016.0
20260830065427 65 263 0.0 0.0 0.00 0.00 0.00 72 1016.2
20260830064403 64 263 0.0 0.0 0.00 0.00 0.00 71 1016.1
20260830063340 62 265 0.0 0.0 0.00 0.00 0.00 79 1015.9
20260830062315 61 265 0.0 0.0 0.00 0.00 0.00 85 1016.0
20260830061251 60 292 1.0 1.0 0.00 0.00 0.00 86 1015.7
20260830060242 59 293 0.0 0.0 0.00 0.00 0.00 84 1015.8
20260830055219 58 293 0.0 0.0 0.00 0.00 0.00 84 1016.0
20260830054155 56 294 1.0 2.0 0.00 0.00 0.00 91 1015.7
20260830053140 56 295 0.0 0.0 0.00 0.00 0.00 90 1015.8
20260830052124 56 297 0.0 0.0 0.00 0.00 0.00 91 1015.6
20260830051059 55 296 2.0 2.0 0.00 0.00 0.00 91 1015.4
20260830050041 56 297 2.0 2.0 0.00 0.00 0.00 91 1015.5
20260830045027 55 297 2.0 2.0 0.00 0.00 0.00 92 1015.5
20260830044005 55 299 0.0 0.0 0.00 0.00 0.00 92 1015.5
20260830042940 56 297 0.0 0.0 0.00 0.00 0.00 91 1015.3
20260830041915 57 297 2.0 2.0 0.00 0.00 0.00 90 1015.4
20260830040851 56 297 0.0 0.0 0.00 0.00 0.00 90 1015.3
20260830035840 56 297 0.0 0.0 0.00 0.00 0.00 90 1015.3
20260830034820 56 297 0.0 0.0 0.00 0.00 0.00 91 1015.5
20260830033756 56 297 1.0 1.0 0.00 0.00 0.00 90 1015.2
20260830032740 56 297 0.0 0.0 0.00 0.00 0.00 90 1015.1
20260830031724 56 297 1.0 2.0 0.00 0.00 0.00 90 1015.2
20260830030659 56 299 1.0 1.0 0.00 0.00 0.00 91 1015.2
20260830025640 56 297 1.0 2.0 0.00 0.00 0.00 89 1015.2
20260830024627 56 297 2.0 2.0 0.00 0.00 0.00 90 1015.2
20260830023603 56 297 0.0 0.0 0.00 0.00 0.00 91 1015.2
20260830022540 57 297 1.0 2.0 0.00 0.00 0.00 89 1015.3
20260830021516 57 297 1.0 2.0 0.00 0.00 0.00 89 1015.0
20260830020451 57 297 2.0 2.0 0.00 0.00 0.00 88 1015.2
20260830015440 57 297 0.0 1.0 0.00 0.00 0.00 89 1015.4
20260830014421 57 296 1.0 2.0 0.00 0.00 0.00 89 1015.1
20260830013356 57 297 1.0 2.0 0.00 0.00 0.00 90 1015.1
20260830012341 57 298 0.0 1.0 0.00 0.00 0.00 89 1015.1
20260830011323 57 298 1.0 1.0 0.00 0.00 0.00 91 1015.1
20260830010300 58 297 1.0 1.0 0.00 0.00 0.00 89 1015.0
20260830005235 58 297 2.0 2.0 0.00 0.00 0.00 90 1015.1
20260830004227 58 297 2.0 2.0 0.00 0.00 0.00 90 1015.2